This demonstration page uses our WeatherBlox Daily Observations layout. Learn more.

Left ArrowRight Arrow

39.01783, -85.05884

Hourly Observations for March 30, 2021

Temp ( °F °C ) Dew Point ( °F °C ) Humidity (%) Winds ( mph kmh ) Pressure ( in mb ) Visibility ( mi km ) Precip ( " mm )
3:52 am 03:52 Clear 46 7.8 27 -2.8 47 47 S 6 9 30.06 1018 10 16 0.00 0.00
4:52 am 04:52 Clear 43 6.1 28 -2.2 56 56 SSE 8 13 30.06 1018 10 16 0.00 0.00
5:52 am 05:52 Clear 41 5 27 -2.8 57 57 S 8 13 30.06 1018 10 16 0.00 0.00
6:52 am 06:52 Clear 43 6.1 28 -2.2 56 56 S 8 13 30.08 1019 10 16 0.00 0.00
7:52 am 07:52 Sunny 46 7.8 29 -1.7 51 51 S 12 19 30.08 1019 10 16 0.00 0.00
8:52 am 08:52 Mostly Sunny 52 11.1 31 -0.6 45 45 S 13 20 30.07 1018 10 16 0.00 0.00
9:52 am 09:52 Mostly Cloudy 55 12.8 32 0 42 42 S 17 28 30.06 1018 10 16 0.00 0.00
10:52 am 10:52 Mostly Cloudy 60 15.6 32 0 35 35 SSW 22 35 30.06 1018 10 16 0.00 0.00
11:52 am 11:52 Mostly Cloudy 64 17.8 34 1.1 33 33 SSW 18 30 30.05 1018 10 16 0.00 0.00
12:52 pm 12:52 Mostly Cloudy 67 19.4 34 1.1 30 30 SSW 22 35 30.03 1017 10 16 0.00 0.00
1:52 pm 13:52 Mostly Cloudy 70 21.1 36 2.2 29 29 S 16 26 30.01 1016 10 16 0.00 0.00
2:52 pm 14:52 Mostly Cloudy 72 22.2 36 2.2 27 27 SSW 17 28 29.97 1015 10 16 0.00 0.00
3:52 pm 15:52 Mostly Cloudy 73 22.8 36 2.2 26 26 SSW 14 22 29.95 1014 10 16 0.00 0.00
4:52 pm 16:52 Mostly Cloudy 72 22.2 37 2.8 28 28 S 15 24 29.93 1014 10 16 0.00 0.00
5:52 pm 17:52 Mostly Cloudy 71 21.7 38 3.3 30 30 S 21 33 29.91 1013 10 16 0.00 0.00
6:52 pm 18:52 Partly Cloudy 71 21.7 36 2.2 28 28 S 15 24 29.89 1012 10 16 0.00 0.00
7:52 pm 19:52 Mostly Cloudy 68 20 39 3.9 35 35 S 12 19 29.90 1012 10 16 0.00 0.00
8:52 pm 20:52 Cloudy 67 19.4 39 3.9 36 36 S 9 15 29.91 1013 10 16 0.00 0.00
9:52 pm 21:52 Cloudy with Light Rain 66 18.9 43 6.1 43 43 S 8 13 29.92 1013 10 16 0.01 0.25
10:52 pm 22:52 Cloudy with Light Rain 61 16.1 49 9.4 65 65 SW 14 22 29.95 1014 10 16 0.02 0.51
11:52 pm 23:52 Cloudy with Light Rain 57 13.9 52 11.1 83 83 SSW 8 13 29.94 1014 10 16 0.04 1.02

Powered by AerisWeather